Wetbulb
70.16 70.63 67.20 65.85 65.19 66.02 67.26 68.69 69.08 69.15 69.16 68.93 68.94 68.28 68.18 68.53 68.47 68.02 67.37 67.06 66.85 66.41 65.90 65.55 65.09 64.44 63.98 62.83 62.76 64.09 63.60 63.19
68.26 68.43 66.45 66.51 65.47 65.24 65.54 66.90 67.88 68.35 68.62 68.33 67.84 67.96 68.49 68.36 67.64 67.41 67.21 66.81 66.46 65.95 65.29 65.09 64.20 63.73 63.16 62.78 62.32 62.60 63.21 62.93
68.30 66.62 65.95 65.11 65.58 64.77 65.24 66.23 67.57 67.56 68.10 67.36 66.93 68.16 68.25 68.08 66.81 66.64 66.15 65.57 65.45 65.12 64.73 64.21 63.64 63.22 62.73 62.46 62.81 63.40 63.50 62.69
66.85 66.52 66.26 66.05 65.59 65.34 65.09 64.97 66.61 67.69 69.05 68.61 67.59 68.29 68.50 66.86 66.62 65.49 65.11 64.67 64.69 64.52 63.82 63.09 62.57 61.31 61.82 61.73 63.38 63.97 63.27 62.52
66.26 66.12 67.02 65.98 64.34 64.58 65.42 63.65 66.07 68.07 67.50 67.76 67.31 68.19 67.72 66.50 67.38 65.60 64.50 64.04 63.00 62.79 62.07 61.34 61.26 60.66 62.30 63.50 63.60 63.85 63.04 62.30
65.44 65.53 65.32 64.79 65.05 62.63 63.29 62.99 63.43 65.06 65.52 64.93 64.62 65.56 65.35 66.16 65.70 65.01 63.67 63.24 62.79 61.88 61.85 63.87 62.19 61.67 62.81 63.12 63.55 63.36 62.87 62.22
62.93 64.85 64.16 64.60 64.38 64.06 63.62 62.83 62.07 62.37 63.10 63.44 63.50 63.85 65.45 65.45 65.59 65.28 63.76 64.60 63.74 62.72 63.46 62.29 61.85 62.02 62.49 62.89 62.73 63.43 63.21 62.10
63.33 62.60 63.86 63.78 62.91 63.27 63.42 62.65 62.48 62.19 61.22 62.21 62.42 63.72 63.81 64.63 64.77 65.00 64.32 65.04 64.52 63.52 63.18 62.38 61.56 61.66 61.73 62.40 62.48 63.07 63.18 62.82
61.45 62.11 61.91 61.85 60.96 60.37 60.90 61.44 61.71 60.95 61.28 61.93 61.52 62.82 63.91 64.49 64.57 65.16 64.94 65.31 65.37 64.23 63.21 62.62 60.98 61.06 61.00 61.56 62.11 62.78 62.63 62.97
61.44 61.52 60.86 61.98 61.49 60.83 60.44 60.75 61.35 60.90 61.08 61.35 60.15 62.49 62.89 63.40 63.06 63.32 63.88 64.46 63.73 62.44 61.75 60.96 60.56 60.19 60.30 60.62 61.13 61.88 62.31 62.64
61.52 60.82 60.74 61.05 61.45 61.09 60.90 60.15 59.70 59.71 60.26 60.80 61.36 62.64 62.38 62.67 62.24 63.08 63.81 62.85 62.82 62.26 62.06 61.63 60.06 59.53 59.63 60.24 60.71 60.49 61.07 61.15
61.59 60.89 60.41 59.60 60.31 59.79 60.60 59.64 59.44 59.61 60.07 61.03 61.96 61.07 61.48 61.48 61.85 62.69 61.70 60.44 59.91 61.19 61.54 60.96 60.07 59.09 57.77 57.99 59.45 59.59 59.90 59.47
60.49 59.91 58.94 57.36 58.22 58.55 58.07 57.75 58.19 58.98 59.84 60.29 61.93 59.76 61.35 61.77 61.44 61.84 62.11 59.94 59.93 62.17 60.53 59.73 57.98 59.03 56.37 56.31 57.14 58.21 58.41 58.21
59.58 59.07 58.20 57.38 57.37 58.51 59.07 58.24 58.04 58.14 59.48 59.86 61.61 61.26 62.15 62.61 62.30 61.50 61.43 61.61 62.33 61.71 61.34 59.00 58.64 58.66 55.06 54.62 52.78 54.90 56.61 57.28
60.10 59.08 58.39 58.02 57.13 58.19 58.92 58.63 58.02 56.76 58.04 58.25 59.30 60.37 61.99 62.37 62.95 62.61 62.23 63.12 61.73 62.13 62.66 61.61 58.55 58.94 59.47 57.48 53.81 52.78 56.01 57.66
61.94 60.62 58.93 58.53 58.60 57.60 57.30 57.45 56.36 57.49 56.94 58.69 58.55 58.64 61.82 61.80 60.35 60.81 62.65 62.22 62.32 62.61 62.62 62.10 61.61 58.77 59.00 58.42 60.56 59.33 55.15 53.78
60.90 60.43 60.00 59.30 59.60 58.00 57.51 56.77 58.14 58.47 57.86 57.72 57.56 57.74 59.81 59.68 60.87 59.91 60.66 62.89 62.60 62.96 62.82 62.31 62.23 60.16 60.22 59.12 58.45 58.76 59.58 56.64
61.35 59.26 59.07 59.86 59.04 58.36 57.69 56.35 57.77 56.65 57.81 57.27 57.10 58.09 59.18 61.23 61.21 60.38 59.84 60.74 61.24 62.02 62.16 62.70 61.76 61.46 61.03 61.05 59.62 57.33 56.60 56.00
60.55 59.85 58.44 59.09 58.80 58.74 58.50 58.28 57.90 57.32 57.52 56.90 56.34 56.62 58.79 61.05 61.56 61.51 61.24 60.81 60.01 61.59 62.23 62.34 62.33 61.42 61.85 61.27 60.80 60.16 60.27 58.84
60.73 59.50 59.48 58.67 58.60 58.31 58.78 59.03 59.40 58.50 57.30 57.33 57.18 58.02 59.72 61.08 61.97 61.91 61.52 60.79 59.47 61.02 61.04 60.87 61.38 61.50 61.73 62.01 61.15 60.49 61.17 60.10
MSLP
1008.88 1009.02 1009.54 1009.99 1011.61 1010.03 1010.46 1010.61 1011.31 1012.13 1012.72 1013.42 1013.90 1015.27 1015.77 1016.32 1017.15 1017.15 1017.46 1017.70 1018.73 1019.17 1019.69 1019.96 1020.38 1020.67 1020.64 1020.46 1020.39 1020.15 1020.16 1020.91
1009.30 1009.55 1010.00 1010.22 1011.00 1011.73 1011.32 1010.58 1010.97 1011.97 1012.98 1013.67 1014.10 1015.29 1015.66 1016.71 1017.35 1017.54 1017.98 1018.44 1018.93 1019.69 1019.96 1020.37 1021.07 1021.18 1021.04 1020.84 1020.63 1020.48 1020.59 1021.09
1009.40 1009.60 1009.68 1010.46 1010.65 1011.43 1012.07 1011.76 1008.72 1011.32 1012.77 1014.01 1014.94 1015.11 1016.11 1016.72 1017.19 1018.06 1018.30 1019.04 1019.54 1020.01 1020.37 1020.72 1021.47 1021.68 1021.50 1020.96 1020.73 1020.16 1020.57 1021.35
1009.47 1009.69 1010.02 1009.75 1010.12 1011.19 1011.42 1011.80 1009.64 1011.93 1012.82 1013.87 1014.22 1015.22 1015.34 1016.18 1017.69 1018.45 1018.97 1019.42 1019.93 1020.40 1020.86 1021.10 1021.71 1021.77 1021.54 1021.59 1020.64 1020.35 1020.83 1022.03
1009.57 1009.88 1009.86 1010.07 1010.73 1011.43 1011.72 1011.23 1011.71 1012.23 1013.06 1013.62 1013.74 1015.15 1015.73 1016.44 1017.99 1018.83 1019.50 1019.66 1020.04 1020.63 1021.02 1020.64 1020.97 1021.29 1021.13 1020.56 1020.74 1020.62 1021.19 1022.43
1009.53 1009.98 1010.35 1010.71 1011.24 1011.76 1012.03 1012.56 1012.52 1013.00 1013.58 1013.88 1014.59 1015.48 1016.12 1016.45 1017.86 1018.39 1019.06 1019.38 1019.92 1020.31 1020.22 1019.66 1020.59 1020.90 1020.58 1021.02 1020.92 1020.62 1021.30 1022.58
1009.98 1010.11 1010.53 1010.79 1011.17 1011.77 1012.28 1012.83 1013.67 1013.65 1014.55 1014.70 1015.48 1015.94 1015.97 1016.62 1017.54 1018.07 1018.54 1018.76 1019.48 1019.79 1019.33 1019.76 1020.40 1020.77 1021.06 1021.09 1020.95 1020.96 1021.50 1022.59
1009.91 1010.51 1010.84 1011.10 1011.44 1012.00 1012.61 1013.35 1013.93 1014.38 1015.17 1015.34 1016.20 1016.11 1016.50 1016.68 1017.31 1017.74 1018.07 1018.22 1018.81 1019.11 1018.98 1019.67 1020.39 1020.63 1021.08 1021.10 1021.21 1021.49 1021.61 1022.29
1010.10 1010.67 1010.97 1011.38 1011.84 1012.36 1012.74 1013.24 1013.57 1014.27 1015.10 1015.88 1016.65 1016.41 1016.48 1016.38 1016.63 1017.12 1017.45 1017.58 1018.20 1018.51 1019.24 1019.63 1020.16 1020.42 1020.81 1021.22 1021.39 1021.71 1021.82 1021.96
1010.10 1010.64 1011.02 1011.25 1011.64 1012.34 1012.72 1013.11 1013.14 1013.96 1015.17 1015.97 1016.55 1016.39 1016.97 1016.79 1016.63 1017.06 1017.42 1017.50 1017.91 1018.40 1019.10 1019.44 1019.81 1020.02 1020.50 1021.17 1021.25 1021.63 1021.98 1022.16
1009.70 1010.45 1010.90 1011.25 1011.75 1012.28 1012.77 1013.20 1013.14 1013.98 1015.23 1015.95 1016.18 1016.68 1017.18 1017.04 1016.80 1017.32 1017.70 1017.76 1018.17 1018.59 1018.99 1019.36 1019.74 1019.83 1020.23 1020.80 1020.89 1021.38 1021.98 1022.06
1009.52 1010.24 1010.85 1011.42 1011.95 1012.63 1013.00 1013.54 1013.92 1014.73 1015.51 1015.65 1016.14 1016.78 1017.09 1017.46 1017.09 1017.82 1018.11 1018.46 1018.64 1019.03 1019.14 1019.49 1019.65 1019.70 1019.87 1020.63 1020.93 1021.24 1021.66 1021.86
1009.32 1010.02 1010.91 1011.63 1012.09 1012.53 1013.18 1013.72 1014.46 1015.25 1015.54 1015.36 1015.75 1016.29 1016.92 1016.94 1017.55 1018.22 1018.33 1018.50 1018.63 1019.03 1019.41 1019.77 1019.80 1020.03 1019.90 1020.48 1021.13 1021.51 1021.55 1021.66
1009.10 1009.78 1010.60 1011.32 1011.88 1012.22 1013.02 1013.78 1014.48 1015.16 1015.62 1015.96 1015.59 1015.86 1016.35 1016.72 1017.15 1017.86 1018.39 1018.17 1018.56 1019.09 1019.43 1019.66 1019.70 1020.05 1019.92 1020.54 1020.74 1021.19 1021.33 1021.56
1008.16 1009.45 1010.24 1010.99 1011.52 1012.47 1013.02 1013.88 1014.66 1015.35 1015.60 1015.87 1015.64 1015.88 1015.51 1016.36 1016.92 1017.30 1017.86 1017.93 1018.28 1018.89 1019.32 1019.17 1019.22 1019.89 1020.09 1019.83 1019.71 1019.44 1019.71 1020.53
1007.51 1008.50 1009.78 1010.42 1011.29 1011.58 1012.31 1012.66 1013.19 1013.97 1014.76 1015.48 1015.64 1015.96 1015.65 1016.10 1016.28 1017.24 1017.63 1017.68 1018.09 1018.59 1018.88 1019.01 1019.11 1019.38 1020.00 1020.09 1019.76 1019.95 1019.25 1020.05
1006.98 1007.86 1008.83 1009.86 1010.49 1011.24 1011.91 1012.37 1012.96 1013.42 1014.32 1015.07 1015.65 1015.99 1015.95 1016.18 1016.62 1017.63 1017.64 1017.44 1017.77 1017.97 1018.41 1018.88 1018.90 1019.35 1019.58 1019.71 1019.87 1019.78 1019.82 1019.93
1006.20 1007.26 1008.11 1009.19 1010.04 1010.70 1011.18 1011.78 1012.24 1013.02 1013.47 1014.17 1014.58 1015.15 1015.40 1015.98 1016.52 1016.61 1016.98 1017.41 1017.66 1017.66 1018.28 1018.62 1018.73 1018.93 1019.09 1019.03 1019.28 1019.22 1019.21 1019.36
1005.47 1006.54 1007.44 1008.45 1009.43 1010.03 1010.55 1011.07 1011.61 1012.25 1012.70 1013.27 1013.88 1014.21 1014.45 1014.84 1015.47 1015.77 1016.25 1016.82 1017.41 1017.53 1017.57 1017.92 1018.07 1018.23 1018.48 1018.71 1018.88 1018.88 1018.71 1018.62
1004.25 1005.55 1006.46 1007.73 1008.62 1009.30 1010.00 1010.50 1010.82 1011.44 1012.17 1012.48 1013.05 1013.28 1013.59 1014.22 1014.71 1014.96 1015.33 1015.95 1016.53 1017.51 1017.03 1017.43 1017.37 1017.52 1017.88 1017.97 1018.32 1018.39 1018.28 1018.32
Wind_Speed
5 6 7 13 9 19 7 21 24 24 24 24 25 21 21 21 19 21 21 22 20 19 17 17 15 11 7 5 7 8 14 12
5 9 8 10 9 1 11 14 24 25 22 22 23 21 19 17 20 21 21 21 20 19 18 18 15 9 7 3 3 5 14 14
10 9 7 8 7 6 5 14 19 25 22 21 18 17 18 21 18 19 21 19 19 18 18 18 13 9 7 8 6 8 10 10
7 10 9 11 8 10 8 4 14 14 18 20 17 17 15 16 18 19 19 19 18 18 17 18 15 10 8 4 6 8 9 10
8 9 9 7 4 6 4 3 6 10 15 15 13 12 11 10 10 10 11 16 11 13 14 12 13 10 8 7 9 7 8 9
8 8 6 7 5 3 5 5 3 6 10 12 12 8 10 12 9 11 11 10 13 12 9 10 12 11 7 10 9 7 9 9
9 8 7 7 9 7 5 6 4 7 5 6 9 6 10 11 11 11 10 10 10 11 10 10 10 10 9 9 8 8 12 9
9 8 7 6 6 8 7 6 8 8 7 6 7 8 7 10 11 12 11 11 11 11 9 10 9 10 10 9 9 9 9 13
9 9 7 8 10 8 5 6 10 11 11 10 12 7 5 9 10 12 11 11 14 10 11 10 10 10 10 9 8 9 7 10
11 9 8 9 9 8 5 2 11 10 10 9 15 11 8 7 8 8 9 8 8 9 10 10 10 9 9 9 8 8 9 7
13 12 11 8 11 8 8 6 8 10 8 8 13 13 10 5 7 7 9 7 7 7 8 8 8 9 9 9 8 7 8 8
11 10 12 7 7 7 7 6 8 8 8 9 13 10 9 5 7 7 7 6 5 7 8 8 8 8 9 8 7 7 7 6
12 11 13 9 8 9 8 8 9 8 6 8 15 13 14 9 7 7 6 6 7 6 7 8 7 7 7 7 6 6 7 8
12 11 14 11 9 7 9 9 8 8 4 4 9 15 15 12 10 9 10 6 9 9 8 8 8 7 7 8 7 7 9 10
15 13 14 12 11 7 7 8 7 7 6 5 6 7 12 12 9 8 10 8 6 9 10 11 8 8 9 6 6 7 10 10
15 16 17 15 17 14 16 14 14 14 12 8 7 10 12 11 8 4 9 8 11 11 10 8 7 8 6 9 8 7 3 5
14 16 17 17 15 14 14 15 11 9 12 14 13 13 14 10 13 14 8 8 9 8 9 9 7 7 6 7 9 8 8 6
13 14 15 17 16 16 18 18 16 11 13 13 12 11 11 16 17 13 11 7 12 8 10 11 8 7 7 8 8 8 9 8
15 17 17 16 15 17 18 19 18 19 18 14 14 13 10 15 16 14 13 14 13 12 10 10 9 9 9 7 9 9 9 7
18 18 18 17 16 17 15 17 11 14 16 13 12 13 14 14 15 15 17 16 12 15 10 11 10 9 11 9 8 10 8 8
Wind_Direction
247 200 139 91 333 326 219 159 149 150 148 145 141 142 142 145 143 131 125 121 127 124 122 118 120 122 113 58 354 310 113 108
208 146 166 149 172 255 318 273 151 148 145 144 139 145 141 140 138 130 130 127 127 130 124 119 124 118 94 121 266 305 119 122
161 162 178 174 168 123 246 277 161 145 142 137 138 150 152 147 139 133 127 132 128 123 122 119 120 121 171 200 246 121 126 107
151 168 175 179 194 169 197 263 168 151 150 154 163 150 155 157 139 129 128 127 125 124 124 124 158 156 168 224 218 126 112 112
159 183 169 171 173 180 194 300 151 150 151 168 156 162 157 129 144 135 135 136 138 140 143 158 150 165 168 182 118 161 120 114
161 165 183 180 154 119 126 130 66 139 157 178 143 153 169 140 155 155 153 164 150 151 175 153 162 164 167 128 169 141 125 120
196 170 171 184 183 165 134 134 185 121 139 121 151 164 167 159 162 163 160 155 174 173 184 152 164 161 147 160 158 128 129 129
151 156 165 159 169 173 163 156 170 155 162 144 195 156 173 169 161 165 175 160 177 187 159 156 175 162 163 157 147 145 152 145
170 158 157 165 162 151 141 165 170 163 159 163 187 161 195 179 164 165 182 161 182 184 160 172 181 172 160 162 154 159 142 146
162 167 177 178 154 157 143 108 164 147 150 158 192 157 204 181 166 170 175 169 173 169 181 180 179 177 162 170 169 171 158 163
160 169 174 167 151 149 137 119 126 128 140 168 185 169 189 199 152 181 182 151 181 168 189 180 179 184 168 179 176 174 172 174
167 167 162 139 130 127 133 124 119 139 174 187 167 162 160 175 140 157 170 176 156 189 186 192 179 188 178 178 184 184 179 179
174 170 156 150 163 149 154 148 147 153 182 199 167 161 175 173 160 165 202 183 173 191 187 190 185 190 184 176 191 200 204 200
168 170 163 162 170 173 155 150 155 154 156 231 200 169 184 175 180 170 214 187 190 183 189 186 189 188 198 190 197 200 210 219
177 168 165 158 167 156 144 137 142 162 177 209 210 222 209 182 184 183 192 218 183 184 201 197 191 181 230 251 218 225 191 191
187 174 176 177 174 173 172 173 172 186 186 180 205 224 219 195 161 197 211 219 187 195 191 203 214 191 199 252 283 297 314 164
196 173 180 186 182 177 179 184 189 175 188 189 189 206 221 219 179 198 227 209 212 184 193 205 213 226 212 211 232 245 253 253
186 177 185 180 181 181 185 191 188 183 187 191 194 201 202 206 211 190 192 214 218 195 193 203 209 218 216 234 234 229 227 226
182 185 183 181 187 185 192 192 192 195 187 191 192 204 208 208 201 192 191 193 221 211 191 204 208 220 224 230 246 244 245 252
186 186 189 182 185 190 189 199 202 196 195 195 202 204 209 205 205 206 201 198 193 226 205 213 209 214 239 239 239 244 243 249